Weather History for Brenham, TX

Change the Weather History Date:

Thursday, February 20, 2014

  Actual Average (KCLL) Record (KCLL)
Temperature  
Mean Temperature 69 °F 56 °F  
Max Temperature 83 °F 66 °F 95 °F (1986)
Min Temperature 54 °F 45 °F 28 °F (1929)
Degree Days  
Heating Degree Days 0 10  
Month to date heating degree days 235  
Since 1 July heating degree days 1313  
Cooling Degree Days 4 1  
Month to date cooling degree days 17  
Year to date cooling degree days 28  
Growing Degree Days 19 (Base 50)    
Moisture  
Dew Point 55 °F    
Average Humidity 61    
Maximum Humidity 85    
Minimum Humidity 23    
Precipitation  
Precipitation 0.01 in 0.10 in 4.76 in (2003)
Month to date precipitation 2.09  
Year to date precipitation 5.33  
Sea Level Pressure  
Sea Level Pressure 29.87 in    
Wind  
Wind Speed 12 mph (SW)    
Max Wind Speed 21 mph    
Max Gust Speed 32 mph    
Visibility 10 miles    
Events      
T = Trace of Precipitation, MM = Missing Value Source: NWS Daily Summary

Daily Weather History Graph

Daily Weather History Graph

Search for Another Location

Airport:

Trip Planner

Search our weather history database for the weather conditions in past years. The results will help you decide how hot, cold, wet, or windy it might be!

Date:

Astronomy

Feb. 20, 2014 Rise Set
Actual Time 7:00 AM CST 6:17 PM CST
Civil Twilight 6:36 AM CST 6:42 PM CST
Nautical Twilight 6:08 AM CST 7:10 PM CST
Astronomical Twilight 5:40 AM CST 7:38 PM CST
Moon 11:46 PM CST (2/20) 10:09 AM CST (2/20)
Length of Visible Light 12h 05m
Length of Day
11h 17m
Waning Gibbous, 70% of the Moon is Illuminated
Feb 20
Waning Gibbous
Feb 22
Last Quarter
Mar 1
New
Mar 8
First Quarter
Mar 16
Full

Hourly Weather History & Observations

Time (CST) Temp. Heat Index Dew Point Humidity Pressure Visibility Wind Dir Wind Speed Gust Speed Precip Events Conditions
12:15 AM 69.8 °F - 63.9 °F 81% 29.81 in 10.0 mi South 10.4 mph 16.1 mph N/A   Scattered Clouds
12:35 AM 69.3 °F - 64.0 °F 83% 29.81 in 10.0 mi South 9.2 mph - N/A   Scattered Clouds
12:55 AM 69.1 °F - 64.2 °F 84% 29.80 in 10.0 mi South 8.1 mph - N/A   Scattered Clouds
1:15 AM 69.1 °F - 64.0 °F 84% 29.80 in 10.0 mi South 11.5 mph - N/A   Scattered Clouds
1:35 AM 69.3 °F - 64.0 °F 83% 29.79 in 10.0 mi South 10.4 mph - N/A   Scattered Clouds
1:55 AM 69.4 °F - 64.4 °F 84% 29.79 in 10.0 mi South 8.1 mph - N/A   Mostly Cloudy
2:15 AM 69.8 °F - 64.6 °F 83% 29.79 in 10.0 mi South 9.2 mph - N/A   Overcast
2:35 AM 69.8 °F - 64.6 °F 83% 29.78 in 10.0 mi South 12.7 mph 16.1 mph N/A   Overcast
2:55 AM 70.0 °F - 64.6 °F 83% 29.78 in 10.0 mi South 11.5 mph 16.1 mph N/A   Mostly Cloudy
3:15 AM 70.3 °F - 64.8 °F 82% 29.77 in 10.0 mi South 11.5 mph 16.1 mph N/A   Mostly Cloudy
3:35 AM 70.7 °F - 65.3 °F 83% 29.77 in 10.0 mi South 10.4 mph - N/A   Mostly Cloudy
3:55 AM 70.7 °F - 65.7 °F 84% 29.76 in 10.0 mi South 10.4 mph - N/A   Overcast
4:15 AM 70.9 °F - 66.2 °F 85% 29.76 in 10.0 mi South 10.4 mph - N/A   Overcast
4:35 AM 71.6 °F - 66.6 °F 84% 29.76 in 10.0 mi South 11.5 mph 17.3 mph N/A   Overcast
4:55 AM 72.0 °F - 66.9 °F 84% 29.76 in 10.0 mi South 10.4 mph 17.3 mph N/A   Overcast
5:15 AM 72.5 °F - 67.1 °F 83% 29.76 in 10.0 mi South 11.5 mph - N/A   Overcast
5:35 AM 72.9 °F - 67.1 °F 82% 29.76 in 10.0 mi South 15.0 mph 21.9 mph N/A   Overcast
5:55 AM 72.9 °F - 67.1 °F 82% 29.77 in 10.0 mi South 11.5 mph 19.6 mph N/A   Overcast
6:15 AM 72.9 °F - 67.1 °F 82% 29.77 in 10.0 mi South 15.0 mph 20.7 mph N/A   Overcast
6:35 AM 72.9 °F - 67.3 °F 83% 29.77 in 10.0 mi South 13.8 mph 20.7 mph N/A   Overcast
6:55 AM 72.9 °F - 67.3 °F 83% 29.77 in 10.0 mi South 11.5 mph 20.7 mph N/A   Overcast
7:35 AM 73.4 °F - 67.5 °F 82% 29.79 in 7.0 mi South 12.7 mph 17.3 mph N/A   Overcast
7:55 AM 73.6 °F - 67.3 °F 81% 29.80 in 7.0 mi South 13.8 mph 18.4 mph N/A   Overcast
8:15 AM 73.8 °F - 67.1 °F 80% 29.81 in 7.0 mi South 13.8 mph 19.6 mph N/A   Overcast
8:55 AM 74.3 °F - 67.1 °F 78% 29.84 in 5.0 mi SSW 11.5 mph - N/A   Haze
9:35 AM 74.5 °F - 67.5 °F 79% 29.85 in 7.0 mi South 8.1 mph - N/A   Mostly Cloudy
9:55 AM 74.7 °F - 67.5 °F 78% 29.85 in 7.0 mi South 10.4 mph - N/A   Mostly Cloudy
10:15 AM 75.0 °F - 67.5 °F 77% 29.85 in 7.0 mi South 9.2 mph - N/A   Scattered Clouds
10:35 AM 77.2 °F - 67.8 °F 73% 29.85 in 7.0 mi South 10.4 mph - N/A   Scattered Clouds
10:55 AM 78.1 °F - 67.5 °F 70% 29.85 in 10.0 mi South 11.5 mph 18.4 mph N/A   Scattered Clouds
12:15 PM 80.6 °F 83.1 °F 67.3 °F 64% 29.84 in 10.0 mi SW 15.0 mph 18.4 mph N/A   Scattered Clouds
12:35 PM 80.8 °F 82.9 °F 66.2 °F 61% 29.83 in 10.0 mi SSW 16.1 mph - N/A   Scattered Clouds
12:55 PM 81.9 °F 84.1 °F 66.2 °F 59% 29.82 in 10.0 mi SW 12.7 mph 20.7 mph N/A   Scattered Clouds
1:15 PM 82.2 °F 84.6 °F 66.7 °F 59% 29.80 in 10.0 mi SSW 15.0 mph 18.4 mph N/A   Scattered Clouds
1:35 PM 83.3 °F 85.7 °F 66.7 °F 57% 29.80 in 10.0 mi SW 10.4 mph - N/A   Scattered Clouds
1:55 PM 83.8 °F 86.0 °F 66.2 °F 55% 29.78 in 10.0 mi SSW 9.2 mph 17.3 mph N/A   Scattered Clouds
2:15 PM 82.8 °F 84.3 °F 64.8 °F 54% 29.79 in 10.0 mi WNW 16.1 mph 26.5 mph N/A   Scattered Clouds
2:35 PM 75.0 °F - 66.2 °F 74% 29.79 in 10.0 mi NW 5.8 mph - 0.01 in   Scattered Clouds
5:15 PM 79.7 °F - 41.2 °F 25% 29.85 in 10.0 mi NNW 20.7 mph 26.5 mph N/A   Clear
5:35 PM 76.5 °F - 36.7 °F 24% 29.87 in 10.0 mi NNW 19.6 mph 32.2 mph N/A   Clear
5:55 PM 74.5 °F - 34.9 °F 24% 29.89 in 10.0 mi NNW 17.3 mph 26.5 mph N/A   Clear
6:15 PM 73.4 °F - 33.1 °F 23% 29.91 in 10.0 mi NNW 18.4 mph 26.5 mph N/A   Clear
6:35 PM 72.1 °F - 33.8 °F 24% 29.93 in 10.0 mi NNW 19.6 mph 28.8 mph N/A   Clear
6:55 PM 70.5 °F - 33.6 °F 26% 29.95 in 10.0 mi NNW 18.4 mph 27.6 mph N/A   Clear
7:15 PM 68.9 °F - 32.0 °F 25% 29.97 in 10.0 mi NNW 16.1 mph 23.0 mph N/A   Clear
7:35 PM 67.6 °F - 32.0 °F 27% 29.98 in 10.0 mi NNW 17.3 mph 25.3 mph N/A   Clear
7:55 PM 66.7 °F - 32.4 °F 28% 30.00 in 10.0 mi North 18.4 mph 26.5 mph N/A   Clear
8:15 PM 65.8 °F - 32.4 °F 29% - 10.0 mi North 19.6 mph - N/A   Clear
8:35 PM 64.9 °F - 32.7 °F 30% 30.03 in 10.0 mi North 18.4 mph 23.0 mph N/A   Clear
8:50 PM 64.8 °F - 32.4 °F 30% 30.04 in 10.0 mi North 15.0 mph 27.6 mph N/A   Clear
9:15 PM 63.0 °F - 33.6 °F 33% 30.05 in 10.0 mi North 13.8 mph 20.7 mph N/A   Clear
9:35 PM 61.5 °F - 34.7 °F 37% 30.06 in 10.0 mi North 12.7 mph 18.4 mph N/A   Clear
9:55 PM 61.0 °F - 34.0 °F 36% 30.08 in 10.0 mi North 15.0 mph 18.4 mph N/A   Clear
10:15 PM 61.0 °F - 33.3 °F 35% 30.08 in 10.0 mi North 12.7 mph - N/A   Clear
10:35 PM 59.2 °F - 34.5 °F 40% 30.10 in 10.0 mi North 9.2 mph - N/A   Clear
10:55 PM 58.1 °F - 34.9 °F 42% 30.10 in 10.0 mi North 9.2 mph - N/A   Clear
11:15 PM 56.7 °F - 35.6 °F 45% 30.10 in 10.0 mi North 6.9 mph - N/A   Clear
11:35 PM 55.9 °F - 35.2 °F 46% 30.10 in 10.0 mi North 6.9 mph - N/A   Clear
11:55 PM 54.9 °F - 35.1 °F 47% 30.10 in 10.0 mi North 5.8 mph - N/A   Clear